{"data":{"norad_id":62755,"intl_designator":"2025-014W","name":"STARLINK-32745","alt_names":[],"object_type":"PAYLOAD","status":"ACTIVE","operator":null,"country":"US","launch_date":"2025-01-21","launch_site_code":"AFETR","launch_vehicle":null,"mission":null,"orbit_class":"UNKNOWN","rcs_meters":null,"size_class":null,"mass_kg":null,"dimensions":null,"purposes":["comms"],"wikipedia_slug":null,"has_3d_model":false,"image_url":null,"decayed_at":null,"tle_current":{"epoch":"2026-09-21T07:31:52.352832Z","epoch_age_seconds":101040,"freshness":"FRESH","line1":"1 62755U 25014W   26264.31380038  .00010649  00000+0  39590-3 0  9991","line2":"2 62755  42.9992 129.7651 0001204 270.2910  89.7803 15.27582962 93173","mean_motion":15.27582962,"eccentricity":0.0001204,"inclination_deg":42.9992,"raan_deg":129.7651,"arg_perigee_deg":270.291,"mean_anomaly_deg":89.7803,"bstar":0.0003959,"rev_number":9317,"period_min":94.266565929399,"perigee_km":482.21414102231,"apogee_km":483.86631249851,"semimajor_km":6861.1772267604,"source":"CELESTRAK","updated_at":"2026-09-22T09:00:49.660029Z"}}}